When you browse on this site, cookies collect data to enhance your experience and personalize the content and advertising you see.
Visit our Privacy Policy to learn more. By continuing to use the site, you agree to this use of cookies and data.
EN

Hourly Weather Gogolewo

Today, 23 September, Wednesday

Time Temperature Precipitation Wind Pressure Humidity
00:00 +18°C° 0 mm 3 mps 747 mmHg 61%
01:00 +17°C° 0 mm 4 mps 747 mmHg 63%
02:00 +17°C° 0 mm 4 mps 746 mmHg 63%
03:00 +17°C° 0 mm 3 mps 746 mmHg 64%
04:00 +16°C° 0 mm 3 mps 746 mmHg 64%
05:00 +17°C° 0 mm 3 mps 746 mmHg 64%
06:00 +17°C° 0 mm 3 mps 746 mmHg 64%
07:00 +17°C° 0 mm 4 mps 746 mmHg 60%
08:00 +19°C° 0 mm 4 mps 746 mmHg 56%
09:00 +21°C° 0 mm 4 mps 745 mmHg 51%
10:00 +23°C° 0 mm 5 mps 745 mmHg 47%
11:00 +25°C° 0 mm 5 mps 745 mmHg 45%
12:00 +26°C° 0 mm 5 mps 745 mmHg 44%
13:00 +27°C° 0 mm 5 mps 745 mmHg 43%
14:00 +26°C° 0 mm 4 mps 744 mmHg 46%
15:00 +26°C° 0 mm 4 mps 744 mmHg 50%
16:00 +25°C° 0 mm 4 mps 744 mmHg 54%
17:00 +24°C° 0 mm 3 mps 744 mmHg 58%
18:00 +21°C° 0 mm 3 mps 744 mmHg 63%
19:00 +20°C° 0 mm 3 mps 744 mmHg 68%
20:00 +19°C° 0 mm 3 mps 744 mmHg 70%
21:00 +19°C° 0 mm 2 mps 744 mmHg 73%
22:00 +18°C° 0 mm 2 mps 744 mmHg 75%
23:00 +18°C° 0 mm 2 mps 744 mmHg 78%

Tomorrow, 24 September, Thursday

Time Temperature Precipitation Wind Pressure Humidity
00:00 +17°C° 0 mm 2 mps 744 mmHg 80%
01:00 +17°C° 0 mm 2 mps 744 mmHg 82%
02:00 +17°C° 0 mm 2 mps 744 mmHg 83%
03:00 +16°C° 0 mm 2 mps 744 mmHg 84%
04:00 +16°C° 0 mm 3 mps 744 mmHg 86%
05:00 +17°C° 0 mm 3 mps 744 mmHg 83%
06:00 +17°C° 0 mm 3 mps 744 mmHg 81%
07:00 +17°C° 0 mm 3 mps 744 mmHg 78%
08:00 +19°C° 0 mm 3 mps 744 mmHg 71%
09:00 +21°C° 0 mm 3 mps 745 mmHg 64%
10:00 +22°C° 0 mm 4 mps 745 mmHg 56%
11:00 +23°C° 0 mm 4 mps 745 mmHg 52%
12:00 +25°C° 0 mm 4 mps 745 mmHg 48%
13:00 +26°C° 0 mm 4 mps 745 mmHg 43%
14:00 +26°C° 0 mm 4 mps 745 mmHg 46%
15:00 +26°C° 0 mm 4 mps 745 mmHg 48%
16:00 +26°C° 0 mm 3 mps 745 mmHg 50%
17:00 +24°C° 0 mm 3 mps 745 mmHg 57%
18:00 +21°C° 0 mm 2 mps 745 mmHg 64%
19:00 +19°C° 0 mm 2 mps 745 mmHg 71%
20:00 +18°C° 0 mm 2 mps 745 mmHg 73%
21:00 +19°C° 0 mm 1 mps 745 mmHg 74%
22:00 +18°C° 0 mm 1 mps 744 mmHg 76%
23:00 +18°C° 0 mm 1 mps 744 mmHg 78%

Day after tomorrow, 25 September, Friday

Time Temperature Precipitation Wind Pressure Humidity
00:00 +17°C° 0 mm 2 mps 743 mmHg 80%
01:00 +16°C° 0 mm 2 mps 743 mmHg 82%
02:00 +16°C° 0 mm 2 mps 742 mmHg 82%
03:00 +16°C° 0 mm 3 mps 741 mmHg 81%
04:00 +16°C° 0 mm 3 mps 741 mmHg 81%
05:00 +17°C° 0 mm 4 mps 740 mmHg 78%
06:00 +17°C° 0 mm 5 mps 739 mmHg 75%
07:00 +17°C° 0 mm 6 mps 738 mmHg 72%
08:00 +19°C° 0.1 mm 6 mps 738 mmHg 70%
09:00 +20°C° 0.1 mm 6 mps 737 mmHg 68%
10:00 +21°C° 0.1 mm 7 mps 737 mmHg 65%
11:00 +19°C° 1.6 mm 6 mps 737 mmHg 73%
12:00 +16°C° 1.6 mm 6 mps 737 mmHg 80%
13:00 +14°C° 1.6 mm 6 mps 737 mmHg 88%
14:00 +14°C° 0.2 mm 5 mps 738 mmHg 84%
15:00 +14°C° 0.2 mm 5 mps 738 mmHg 81%
16:00 +14°C° 0.2 mm 4 mps 738 mmHg 78%
17:00 +13°C° 0 mm 4 mps 739 mmHg 75%
18:00 +13°C° 0 mm 4 mps 739 mmHg 73%
19:00 +12°C° 0 mm 4 mps 740 mmHg 70%
20:00 +12°C° 0 mm 4 mps 740 mmHg 69%
21:00 +12°C° 0 mm 3 mps 740 mmHg 67%
22:00 +11°C° 0 mm 3 mps 740 mmHg 66%
23:00 +11°C° 0 mm 3 mps 740 mmHg 67%

26 September, Saturday

Time Temperature Precipitation Wind Pressure Humidity
00:00 +12°C° 0 mm 2 mps 740 mmHg 68%
01:00 +12°C° 0 mm 2 mps 740 mmHg 69%
02:00 +12°C° 0.1 mm 2 mps 740 mmHg 70%
03:00 +12°C° 0.1 mm 2 mps 740 mmHg 72%
04:00 +12°C° 0.1 mm 2 mps 739 mmHg 73%
05:00 +10°C° 1.1 mm 3 mps 739 mmHg 78%
06:00 +9°C° 1.1 mm 3 mps 739 mmHg 83%
07:00 +8°C° 1.1 mm 4 mps 739 mmHg 88%
08:00 +8°C° 2.3 mm 4 mps 739 mmHg 89%
09:00 +8°C° 2.3 mm 5 mps 739 mmHg 90%
10:00 +8°C° 2.3 mm 6 mps 739 mmHg 92%
11:00 +8°C° 2.1 mm 6 mps 739 mmHg 92%
12:00 +8°C° 2.1 mm 6 mps 739 mmHg 92%
13:00 +8°C° 2.1 mm 6 mps 739 mmHg 92%
14:00 +8°C° 0.6 mm 6 mps 739 mmHg 90%
15:00 +8°C° 0.6 mm 6 mps 739 mmHg 89%
16:00 +8°C° 0.6 mm 6 mps 739 mmHg 88%
17:00 +8°C° 0.1 mm 6 mps 739 mmHg 88%
18:00 +8°C° 0.1 mm 6 mps 739 mmHg 88%
19:00 +8°C° 0.1 mm 6 mps 739 mmHg 88%
20:00 +8°C° 0.2 mm 6 mps 739 mmHg 88%
21:00 +8°C° 0.2 mm 6 mps 738 mmHg 88%
22:00 +8°C° 0.2 mm 6 mps 738 mmHg 88%
23:00 +8°C° 1.7 mm 7 mps 738 mmHg 89%

27 September, Sunday

Time Temperature Precipitation Wind Pressure Humidity
00:00 +7°C° 1.7 mm 8 mps 737 mmHg 90%
01:00 +7°C° 1.7 mm 9 mps 737 mmHg 91%
02:00 +7°C° 2.4 mm 10 mps 736 mmHg 91%
03:00 +7°C° 2.4 mm 10 mps 736 mmHg 90%
04:00 +6°C° 2.4 mm 11 mps 736 mmHg 90%
05:00 +6°C° 2.5 mm 11 mps 736 mmHg 90%
06:00 +4°C° 2.5 mm 11 mps 736 mmHg 90%
07:00 +4°C° 2.5 mm 12 mps 736 mmHg 89%
08:00 +4°C° 1.2 mm 11 mps 736 mmHg 89%
09:00 +4°C° 1.2 mm 11 mps 737 mmHg 90%
10:00 +3°C° 1.2 mm 10 mps 737 mmHg 90%
11:00 +3°C° 0.6 mm 10 mps 738 mmHg 89%
12:00 +3°C° 0.6 mm 9 mps 738 mmHg 88%
13:00 +3°C° 0.6 mm 9 mps 739 mmHg 88%
14:00 +5°C° 0.5 mm 8 mps 739 mmHg 88%
15:00 +5°C° 0.5 mm 8 mps 739 mmHg 88%
16:00 +5°C° 0.5 mm 7 mps 740 mmHg 88%
17:00 +5°C° 0.4 mm 7 mps 740 mmHg 88%
18:00 +5°C° 0.4 mm 6 mps 741 mmHg 88%
19:00 +5°C° 0.4 mm 6 mps 741 mmHg 88%
20:00 +6°C° 0.1 mm 5 mps 742 mmHg 86%
21:00 +7°C° 0.1 mm 5 mps 742 mmHg 84%
22:00 +7°C° 0.1 mm 5 mps 742 mmHg 82%
23:00 +6°C° 0 mm 5 mps 742 mmHg 81%

28 September, Monday

Time Temperature Precipitation Wind Pressure Humidity
00:00 +5°C° 0 mm 5 mps 742 mmHg 81%
01:00 +5°C° 0 mm 5 mps 743 mmHg 81%
02:00 +5°C° 0 mm 5 mps 743 mmHg 80%
03:00 +3°C° 0 mm 5 mps 743 mmHg 80%
04:00 +3°C° 0 mm 6 mps 743 mmHg 80%
05:00 +4°C° 0 mm 6 mps 742 mmHg 80%
06:00 +4°C° 0 mm 6 mps 742 mmHg 80%
07:00 +4°C° 0 mm 6 mps 742 mmHg 81%
08:00 +5°C° 0 mm 7 mps 742 mmHg 78%
09:00 +6°C° 0 mm 7 mps 742 mmHg 75%
10:00 +7°C° 0 mm 8 mps 742 mmHg 73%
11:00 +9°C° 0 mm 7 mps 742 mmHg 71%
12:00 +9°C° 0 mm 7 mps 742 mmHg 70%
13:00 +10°C° 0 mm 7 mps 742 mmHg 69%
14:00 +9°C° 0.1 mm 6 mps 743 mmHg 72%
15:00 +8°C° 0.1 mm 6 mps 743 mmHg 74%
16:00 +7°C° 0.1 mm 6 mps 743 mmHg 77%
17:00 +7°C° 0.2 mm 6 mps 743 mmHg 79%
18:00 +7°C° 0.2 mm 6 mps 743 mmHg 80%
19:00 +7°C° 0.2 mm 6 mps 744 mmHg 81%
20:00 +7°C° 0.1 mm 6 mps 744 mmHg 82%
21:00 +7°C° 0.1 mm 5 mps 744 mmHg 84%
22:00 +7°C° 0.1 mm 5 mps 744 mmHg 85%
23:00 +7°C° 0.1 mm 4 mps 744 mmHg 87%
Show more